Overview Statistics Trail Chart Weather Telemetry Raw packets
 

This is the latest recevied weather packets stored in our database for station/object WX0ABE-13. If no packets are shown the sender has not sent any weather packets the latest 10 day(s).

<< 52 53 54 55 56 57 58 >>
Time Temp. Humidity Pressure Rain* Wind** Luminosity Snow
1787984504 25° C 49% 1016.4 hPa 0 mm - 0 W/m² -
1787984203 25° C 48% 1016.4 hPa 0 mm - 0 W/m² -
1787983897 25° C 47% 1016.4 hPa 0 mm - 0 W/m² -
1787983593 25° C 46% 1016.2 hPa 0 mm - 0 W/m² -
1787983287 25.56° C 45% 1016.4 hPa 0 mm - 0 W/m² -
1787982982 25.56° C 45% 1016.3 hPa 0 mm - 0 W/m² -
1787982678 25.56° C 44% 1015.9 hPa 0 mm - 0 W/m² -
1787982374 26.11° C 43% 1016.3 hPa 0 mm - 0 W/m² -
1787982074 26.67° C 42% 1016.3 hPa 0 mm - 0 W/m² -
1787981770 26.67° C 41% 1016.4 hPa 0 mm - 0 W/m² -
1787981469 26.67° C 41% 1016.3 hPa 0 mm - 0 W/m² -
1787981164 26.67° C 40% 1016.5 hPa 0 mm - 0 W/m² -
1787980862 26.67° C 41% 1016.5 hPa 0 mm - 0 W/m² -
1787980558 26.67° C 41% 1016.6 hPa 0 mm - 0 W/m² -
1787980253 26.67° C 41% 1016.7 hPa 0 mm - 0 W/m² -
1787979948 26.67° C 42% 1016.4 hPa 0 mm - 0 W/m² -
1787979648 26.67° C 42% 1016.7 hPa 0 mm - 0 W/m² -
1787979348 26.67° C 42% 1016.7 hPa 0 mm - 0 W/m² -
1787979048 26.67° C 42% 1016.5 hPa 0 mm - 0 W/m² -
1787978746 27.22° C 41% 1016.8 hPa 0 mm - 0 W/m² -
1787978442 26.67° C 42% 1016.8 hPa 0 mm - 0 W/m² -
1787978138 26.67° C 42% 1016.7 hPa 0 mm - 0 W/m² -
1787977838 26.11° C 43% 1016.7 hPa 0 mm - 0 W/m² -
1787977537 26.11° C 44% 1016.7 hPa 0 mm - 0 W/m² -
1787977237 26.11° C 44% 1016.6 hPa 0 mm - 0 W/m² -

* Rain latest hour (hover to see other rain measurements)
** Current wind speed in m/s (hover to see current wind gust speed)